Location: Caltech
(34.1382°N, 118.1253°W)
Time: 20:15:44
(UTC-07:00)

Cosmos 1937 Rocket - Visible Passes

Search period start: 19 April 2014 00:00
Search period end: 29 April 2014 00:00
Orbit: 748 x 782 km, 74.0° (Epoch: 19 April)

Date Brightness Start Highest point End Pass type
(mag) Time Alt. Az. Time Alt. Az. Time Alt. Az.
19 Apr 4.6 04:51:29 10° S 04:56:17 42° ESE 05:01:08 10° NNE visible
20 Apr 5.6 04:14:38 10° SSE 04:18:34 23° E 04:22:32 10° NE visible
21 Apr 6.2 03:39:10 10° ESE 03:40:57 12° E 03:42:43 10° ENE visible
21 Apr 3.5 05:17:13 10° SSW 05:22:16 61° WNW 05:27:24 10° N visible
22 Apr 3.6 04:40:25 17° S 04:44:22 72° ESE 04:49:31 10° NNE visible
23 Apr 4.7 04:03:46 21° SSE 04:06:33 38° E 04:11:18 10° NE visible
23 Apr 4.9 05:44:48 10° WSW 05:48:38 21° WNW 05:52:30 10° NNW visible
24 Apr 5.5 03:27:03 17° SE 03:28:51 20° E 03:32:34 10° NE visible
24 Apr 4.1 05:07:16 18° SW 05:10:30 37° WNW 05:15:17 10° N visible
25 Apr 6.2 02:50:39 10° E 02:51:15 10° E 02:51:51 10° E visible
25 Apr 3.4 04:30:28 37° SW 04:32:30 69° WNW 04:37:40 10° NNE visible
26 Apr 3.7 03:53:36 52° SSE 03:54:36 64° ESE 03:59:44 10° NNE visible
26 Apr 5.4 05:34:41 10° W 05:37:03 13° WNW 05:39:26 10° NNW visible
27 Apr 4.7 03:16:41 34° ESE 03:16:49 34° E 03:21:26 10° NE visible
27 Apr 4.8 04:56:54 19° W 04:58:49 23° WNW 05:02:55 10° NNW visible
28 Apr 5.7 02:39:42 18° E 02:39:42 18° E 02:42:34 10° NE visible
28 Apr 3.9 04:19:55 39° W 04:20:42 41° WNW 04:25:36 10° N visible
